EW2498 Weather Reports


time (UTC)temp
F
wind
direction
speed
knots
gust
knots
rain 1hr
in
rain 24hr
in
rain mn
in
humidity
%
barometer
mb
20260507155306 84 121 12.2 13.0 0.00 0.00 0.00 71 1009.1
20260507154805 84 116 11.3 13.9 0.00 0.00 0.00 70 1009.1
20260507154305 84 113 12.2 13.9 0.00 0.00 0.00 70 1009.1
20260507153304 84 115 10.4 12.2 0.00 0.00 0.00 70 1009.2
20260507152805 84 113 11.3 12.2 0.00 0.00 0.00 71 1009.3
20260507152306 84 114 10.4 12.2 0.00 0.00 0.00 71 1009.4
20260507151805 84 122 10.4 11.3 0.00 0.00 0.00 71 1009.5
20260507151304 85 117 11.3 11.3 0.00 0.00 0.00 70 1009.6
20260507150305 84 115 9.6 11.3 0.00 0.00 0.00 70 1009.8
20260507144804 85 110 8.7 10.4 0.00 0.00 0.00 71 1010.0
20260507144305 85 118 8.7 11.3 0.00 0.00 0.00 71 1010.0
20260507143804 84 116 10.4 11.3 0.00 0.00 0.00 71 1010.1
20260507143304 85 114 10.4 12.2 0.00 0.00 0.00 70 1010.2
20260507142306 86 133 9.6 11.3 0.00 0.00 0.00 66 1010.3
20260507141804 87 128 6.1 11.3 0.00 0.00 0.00 65 1010.3
20260507141305 87 157 6.1 11.3 0.00 0.00 0.00 65 1010.3
20260507135306 86 156 7.8 11.3 0.00 0.00 0.00 65 1010.7
20260507134304 86 146 8.7 11.3 0.00 0.00 0.00 67 1010.8
20260507133305 86 143 8.7 12.2 0.00 0.00 0.00 67 1010.9
20260507132307 85 138 9.6 11.3 0.00 0.00 0.00 69 1011.0
20260507131304 83 136 9.6 11.3 0.00 0.00 0.00 73 1011.2
20260507123804 82 117 5.2 7.0 0.00 0.00 0.00 78 1011.4
20260507123308 82 117 5.2 6.1 0.00 0.00 0.00 77 1011.4
20260507122804 82 117 5.2 7.0 0.00 0.00 0.00 77 1011.4
20260507122307 82 117 5.2 7.0 0.00 0.00 0.00 77 1011.4
20260507121804 82 115 6.1 8.7 0.00 0.00 0.00 76 1011.4
20260507121304 82 121 5.2 7.8 0.00 0.00 0.00 76 1011.5
20260507120804 82 122 5.2 7.0 0.00 0.00 0.00 76 1011.6
20260507115307 82 132 5.2 8.7 0.00 0.00 0.00 76 1011.5
20260507114804 82 155 6.1 8.7 0.00 0.00 0.00 76 1011.4
20260507113312 82 142 1.7 6.1 0.00 0.00 0.00 78 1011.4
20260507112804 81 186 2.6 7.0 0.00 0.00 0.00 78 1011.4
20260507112307 81 232 1.7 4.3 0.00 0.00 0.00 78 1011.4
20260507111304 81 177 1.7 4.3 0.00 0.00 0.00 79 1011.4
20260507110804 81 222 0.0 1.7 0.00 0.00 0.00 79 1011.4
20260507110304 81 189 0.9 1.7 0.00 0.00 0.00 80 1011.3
20260507105804 81 232 0.9 2.6 0.00 0.00 0.00 80 1011.3
20260507105306 81 167 0.9 2.6 0.00 0.00 0.00 80 1011.2
20260507103805 80 213 0.9 1.7 0.00 0.01 0.00 81 1011.0
20260507102307 80 223 1.7 2.6 0.00 0.01 0.00 82 1011.0
20260507100804 79 249 0.9 2.6 0.00 0.01 0.00 82 1010.9
20260507100304 79 263 0.9 2.6 0.00 0.01 0.00 82 1010.8
20260507095804 78 260 0.9 1.7 0.00 0.01 0.00 82 1010.9
20260507094804 78 254 0.9 1.7 0.00 0.01 0.00 82 1010.7
20260507094304 78 248 0.9 1.7 0.00 0.01 0.00 82 1010.7
20260507093804 78 276 0.0 0.0 0.00 0.01 0.00 82 1010.6
20260507085306 77 247 0.0 0.0 0.00 0.01 0.00 83 1010.3
20260507084804 77 273 0.0 0.0 0.00 0.01 0.00 83 1010.2
20260507084304 77 238 0.0 0.0 0.00 0.01 0.00 83 1010.2
20260507075307 77 245 0.0 0.0 0.00 0.01 0.00 83 1009.6
20260507074804 77 271 0.0 0.0 0.00 0.01 0.00 83 1009.6
20260507072804 76 265 0.0 0.0 0.00 0.01 0.00 83 1009.5
20260507072306 76 270 0.0 0.0 0.00 0.01 0.00 83 1009.5
20260507071804 76 283 0.0 0.0 0.00 0.01 0.00 84 1009.5
20260507070804 76 255 0.0 0.0 0.00 0.01 0.00 84 1009.5
20260507065306 76 272 0.0 0.0 0.00 0.01 0.00 84 1009.6
20260507064804 76 274 0.0 0.0 0.00 0.01 0.00 84 1009.6
20260507063304 76 240 0.0 0.0 0.00 0.01 0.00 84 1009.7
20260507062805 76 220 0.0 0.0 0.00 0.01 0.00 84 1009.6
20260507061805 76 238 0.0 0.0 0.00 0.01 0.00 84 1009.5
20260507054804 76 277 0.0 0.0 0.00 0.01 0.00 84 1009.6
20260507053305 76 258 0.0 0.0 0.00 0.01 0.00 83 1009.7
20260507052306 77 268 0.0 0.0 0.00 0.03 0.00 83 1009.7
20260507044804 77 235 0.0 0.0 0.00 0.04 0.00 83 1009.9
20260507043804 77 232 0.0 0.0 0.00 0.05 0.00 82 1009.8
20260507041805 77 228 0.0 0.0 0.00 0.09 0.00 82 1009.9
20260507041304 77 238 0.0 0.0 0.00 0.09 0.00 82 1009.8
20260507040804 77 228 0.0 0.0 0.00 0.09 0.00 82 1009.9
20260507040304 78 240 0.0 0.0 0.00 0.09 0.00 82 1010.0
20260507033304 78 258 0.0 0.0 0.00 0.11 0.00 82 1010.1
20260507032306 78 258 0.0 0.0 0.00 0.11 0.00 82 1010.2
20260507031804 78 258 0.0 0.0 0.00 0.11 0.00 82 1010.2
20260507031304 78 267 0.0 0.0 0.00 0.11 0.00 82 1010.2
20260507024805 78 263 0.0 0.0 0.00 0.11 0.11 81 1010.5
20260507024304 78 263 0.0 0.0 0.00 0.11 0.11 81 1010.5
20260507023304 78 268 0.0 0.0 0.00 0.11 0.11 81 1010.6
20260507022804 78 277 0.0 0.0 0.00 0.11 0.11 81 1010.6
20260507022306 78 286 0.0 0.0 0.00 0.11 0.11 81 1010.6
20260507020804 78 286 0.0 0.0 0.00 0.11 0.11 81 1010.8
20260507015306 78 287 0.0 0.0 0.00 0.11 0.11 81 1010.8
20260507014805 78 286 0.0 0.0 0.00 0.11 0.11 81 1010.8
20260507012805 79 272 0.0 0.0 0.00 0.11 0.11 80 1010.9
20260507011305 79 288 1.7 2.6 0.00 0.11 0.11 81 1010.9
20260507010805 79 271 1.7 4.3 0.00 0.11 0.11 81 1010.9
20260507010305 79 248 0.9 4.3 0.00 0.11 0.11 81 1011.0
20260507005805 79 219 0.9 2.6 0.00 0.11 0.11 80 1011.0
20260507005305 79 274 0.9 1.7 0.00 0.11 0.11 80 1011.0
20260507004804 79 255 0.0 1.7 0.00 0.11 0.11 80 1011.0
20260507004304 79 266 0.0 0.9 0.00 0.11 0.11 80 1010.9
20260507003304 79 280 0.9 2.6 0.00 0.11 0.11 80 1010.9
20260507002804 79 278 0.9 1.7 0.00 0.11 0.11 80 1010.9
20260507001804 79 281 1.7 4.3 0.00 0.11 0.11 80 1010.8
20260506235805 79 277 1.7 4.3 0.00 0.11 0.11 80 1010.9
20260506233804 79 271 1.7 4.3 0.00 0.11 0.11 80 1010.6
20260506232804 79 267 1.7 2.6 0.00 0.11 0.11 79 1010.6
20260506232306 79 275 1.7 2.6 0.00 0.11 0.11 79 1010.6
20260506225306 80 266 1.7 4.3 0.00 0.11 0.11 77 1010.5
20260506224304 81 274 1.7 2.6 0.00 0.11 0.11 76 1010.5
20260506223804 81 240 0.9 2.6 0.00 0.11 0.11 76 1010.5
20260506222804 82 127 0.0 1.7 0.00 0.11 0.11 75 1010.6
20260506222306 82 176 0.9 2.6 0.00 0.11 0.11 75 1010.6
20260506221804 82 196 4.3 7.0 0.00 0.11 0.11 75 1010.5
20260506220304 83 168 7.0 12.2 0.00 0.11 0.11 75 1010.4
20260506215306 83 151 7.0 12.2 0.00 0.11 0.11 75 1010.3
20260506214303 83 145 11.3 13.9 0.00 0.11 0.11 75 1010.3
20260506213804 83 148 12.2 14.8 0.00 0.11 0.11 75 1010.2
20260506213304 83 143 12.2 13.9 0.00 0.11 0.11 75 1010.2
20260506210804 83 135 15.6 17.4 0.00 0.11 0.11 75 1010.0
20260506205804 83 138 14.8 17.4 0.00 0.11 0.11 75 1010.0
20260506205306 83 134 13.0 14.8 0.00 0.11 0.11 75 1010.0
20260506204804 83 132 14.8 17.4 0.00 0.11 0.11 75 1010.0
20260506204304 83 132 14.8 17.4 0.00 0.11 0.11 76 1009.9
20260506203304 83 135 13.9 15.6 0.00 0.11 0.11 74 1010.0
20260506202306 83 135 13.9 14.8 0.00 0.11 0.11 74 1010.0
20260506201304 84 134 14.8 15.6 0.00 0.11 0.11 74 1009.9
20260506200804 84 137 13.9 15.6 0.00 0.11 0.11 74 1010.0
20260506200304 84 133 13.9 15.6 0.00 0.11 0.11 74 1010.0
20260506194804 84 140 15.6 18.2 0.00 0.11 0.11 73 1010.1
20260506194304 84 134 14.8 15.6 0.00 0.11 0.11 73 1010.1
20260506193804 84 135 14.8 17.4 0.00 0.11 0.11 73 1010.1
20260506192804 85 137 13.9 18.2 0.00 0.11 0.11 73 1010.0
20260506190804 84 130 15.6 18.2 0.00 0.11 0.11 72 1010.0
20260506190304 84 133 16.5 18.2 0.00 0.11 0.11 72 1010.0
20260506184304 84 128 17.4 19.1 0.00 0.11 0.11 71 1009.9
20260506182803 84 134 18.2 20.0 0.00 0.11 0.11 71 1009.7
20260506182306 84 131 16.5 20.0 0.00 0.11 0.11 72 1009.7
20260506181804 85 133 15.6 19.1 0.00 0.11 0.11 73 1009.7
20260506180804 84 131 17.4 19.1 0.00 0.11 0.11 72 1009.7
20260506180304 84 133 17.4 20.0 0.00 0.11 0.11 72 1009.8
20260506175804 84 132 18.2 20.9 0.00 0.11 0.11 71 1009.7
20260506174804 85 131 15.6 19.1 0.00 0.11 0.11 71 1009.6
20260506174304 85 130 15.6 18.2 0.00 0.11 0.11 71 1009.6
20260506172804 85 126 14.8 17.4 0.00 0.11 0.11 71 1009.7
20260506172306 85 127 14.8 17.4 0.00 0.11 0.11 71 1009.7
20260506170804 85 124 13.9 14.8 0.00 0.11 0.11 70 1009.9
20260506170304 86 123 11.3 13.0 0.00 0.11 0.11 69 1010.0
20260506165305 86 136 11.3 14.8 0.00 0.11 0.11 65 1010.2
20260506163304 89 179 2.6 11.3 0.00 0.11 0.11 55 1010.4
20260506162307 90 191 3.5 11.3 0.00 0.11 0.11 55 1010.4
20260506161304 89 193 5.2 12.2 0.00 0.11 0.11 55 1010.6
20260506160804 90 168 6.1 11.3 0.00 0.11 0.11 56 1010.7